カタログに戻る

HULIANWANG DIGUI-11

運用中通信LEO
NORAD 62971·PAYLOAD·🇨🇳 China

打ち上げ Feb 11, 2025 から Wenchang Space Launch Site

Loading…

次のパス (今後24時間)

TLE

最新Source: Space-Track

元期: Sep 14, 2026, 22:11 UTC

1 62971U 25030A   26257.92452119 -.00000091  00000-0  70147-4 0  9994
2 62971  50.0000 273.9568 0000479  45.2244 314.8667 13.29327138 77797

AllMySatでHULIANWANG DIGUI-11をリアルタイム追跡

Download on the App Store